Retour au catalogue

STARLINK-34166

ActifCommunicationsSSO
NORAD 64158·PAYLOAD·🇺🇸 United States

Lancé May 27, 2025 depuis Vandenberg Space Force Base

Loading…

Prochains Passages (prochaines 24 heures)

TLE

FraisSource: CelesTrak SupGP

Époque: Sep 15, 2026, 03:50 UTC

1 64158C 25112N   26258.16020833 -.00000476  00000+0 -14789-4 0  2580
2 64158  97.2836 305.2327 0000924  88.8134 317.5087 15.33441845    10

Suivez STARLINK-34166 en temps réel avec AllMySat

Download on the App Store